Home   Weather   Boulder   Past weeks

Flag for USA Past Weather in Boulder, Colorado, USA — Yesterday and Last 2 Weeks

Now
34 °F

Mostly cloudy.


Feels Like: 28 °F
Forecast: 29 / 43 °F
Wind: 7 mph from Northwest

Location: Broomfield / Jeffco

Current Time: Jan 20, 2017 at 7:24:47 am

Latest Report: Jan 20, 2017 at 6:47 am


Visibility: 30 mi

Pressure: 29.46 "Hg (24.06 "Hg at 1623m altitude)

Humidity: 70%

Dew Point: 25 °F

Location of BoulderLocation

Past Weather in Boulder — Graph

°F

Boulder Temperature Yesterday

Maximum temperature yesterday: 55 °F (at 2:45 pm)
Minimum temperature yesterday: 34 °F (at 12:36 am)
Average temperature yesterday: 41 °F

High & Low Weather Summary for the Past Weeks

 TemperatureHumidityPressure
High63 °F (Jan 9, 12:46 pm)100% (Jan 11, 5:45 pm)30.35 "Hg (Jan 11, 5:45 pm)
Low0 °F (Jan 6, 2:57 am)16% (Jan 18, 3:45 pm)29.45 "Hg (Jan 20, 5:45 am)
Average32 °F62%29.93 "Hg
* Reported Jan 5 5:50 am — Jan 20 5:45 am, Boulder, Weather by CustomWeather, © 2017

Note: Actual official high and low records may vary slightly from our data, if they occured in-between our weather recording intervals... More about our weather records

Advertising

Boulder Weather History for the Previous 24 Hours

Scroll right to see more
 ConditionsComfort  
Time TempWeatherWind HumidityBarometerVisibility
5:45 am
Fri, Jan 20
37 °FPassing clouds.7 mph60%29.45 "Hg20 mi
4:56 am37 °FMostly cloudy.5 mph75%29.46 "Hg10 mi
4:36 am37 °FOvercast.5 mph75%29.46 "Hg10 mi
4:16 am39 °FDrizzle. Overcast.9 mph65%29.46 "Hg10 mi
3:55 am41 °FLight rain. Partly cloudy.3 mph61%29.46 "Hg10 mi
3:36 am37 °FClear.6 mph56%29.46 "Hg10 mi
3:16 am39 °FClear.No wind48%29.46 "Hg10 mi
2:56 am37 °FClear.No wind52%29.46 "Hg10 mi
2:36 am36 °FPassing clouds.3 mph65%29.47 "Hg10 mi
2:15 am36 °FPassing clouds.No wind65%29.47 "Hg10 mi
1:56 am36 °FClear.5 mph60%29.47 "Hg10 mi
1:35 am36 °FClear.3 mph60%29.47 "Hg10 mi
1:16 am36 °FClear.7 mph60%29.47 "Hg10 mi
12:56 am36 °FClear.No wind65%29.47 "Hg10 mi
12:36 am36 °FClear.9 mph65%29.47 "Hg10 mi
12:16 am36 °FClear.9 mph60%29.48 "Hg10 mi
11:56 pm
Thu, Jan 19
36 °FClear.5 mph56%29.49 "Hg10 mi
11:35 pm37 °FClear.8 mph52%29.50 "Hg10 mi
11:16 pm37 °FClear.8 mph52%29.51 "Hg10 mi
10:56 pm39 °FClear.5 mph45%29.52 "Hg10 mi
10:35 pm41 °FClear.No wind42%29.52 "Hg10 mi
10:16 pm41 °FClear.5 mph42%29.52 "Hg10 mi
9:45 pm41 °FPassing clouds.10 mph39%29.51 "Hg30 mi
8:45 pm45 °FPassing clouds.6 mph34%29.53 "Hg30 mi
7:45 pm45 °FPassing clouds.5 mph37%29.53 "Hg30 mi
6:55 pm45 °FPassing clouds.6 mph37%29.54 "Hg30 mi
5:45 pm46 °FPassing clouds.3 mph34%29.54 "Hg30 mi
4:45 pm48 °FPassing clouds.5 mph32%29.53 "Hg30 mi
3:45 pm54 °FSunny.5 mph26%29.52 "Hg50 mi
2:45 pm55 °FPassing clouds.7 mph24%29.52 "Hg50 mi
1:47 pm52 °FPassing clouds.No wind30%29.53 "Hg50 mi
12:53 pm50 °FPassing clouds.No wind32%29.55 "Hg50 mi
11:47 am46 °FPassing clouds.6 mph40%29.59 "Hg50 mi
10:45 am45 °FPassing clouds.No wind37%29.60 "Hg50 mi
9:51 am41 °FSunny.No wind42%29.61 "Hg50 mi
8:45 am39 °FSunny.No wind45%29.61 "Hg60 mi
7:47 am34 °FSunny.No wind48%29.61 "Hg60 mi
Weather by CustomWeather, © 2017

See weather overviewHow to use our weather pages